This is the latest recevied weather packets stored in our database for station/object KF4CQ. If no packets are shown the sender has not sent any weather packets the latest 10 day(s).
| Time | Temp. | Humidity | Pressure | Rain* | Wind** | Luminosity | Snow |
|---|---|---|---|---|---|---|---|
| 1777581780 | 30.56° C | 58% | 1010.7 hPa | 0 mm | - | 131 W/m² | - |
| 1777581478 | 30.56° C | 58% | 1010.8 hPa | 0 mm | - | 261 W/m² | - |
| 1777581173 | 31.11° C | 56% | 1010.8 hPa | 0 mm | - | 326 W/m² | - |
| 1777580868 | 31.11° C | 56% | 1010.7 hPa | 0 mm | - | 336 W/m² | - |
| 1777580563 | 31.11° C | 56% | 1010.7 hPa | 0 mm | - | 288 W/m² | - |
| 1777580259 | 30.56° C | 57% | 1010.8 hPa | 0 mm | - | 346 W/m² | - |
| 1777579956 | 30.56° C | 57% | 1010.6 hPa | 0 mm | - | 392 W/m² | - |
| 1777579651 | 31.11° C | 57% | 1010.8 hPa | 0 mm | - | 91 W/m² | - |
| 1777579350 | 31.11° C | 56% | 1010.7 hPa | 0 mm | - | 94 W/m² | - |
| 1777579046 | 30.56° C | 57% | 1010.8 hPa | 0 mm | - | 284 W/m² | - |
| 1777578740 | 31.11° C | 56% | 1011 hPa | 0 mm | - | 126 W/m² | - |
| 1777578435 | 31.11° C | 56% | 1010.8 hPa | 0 mm | - | 438 W/m² | - |
| 1777578131 | 31.67° C | 55% | 1010.8 hPa | 0 mm | - | 531 W/m² | - |
| 1777577827 | 31.11° C | 56% | 1010.9 hPa | 0 mm | - | 578 W/m² | - |
| 1777577522 | 31.67° C | 54% | 1011 hPa | 0 mm | - | 383 W/m² | - |
| 1777577219 | 31.67° C | 54% | 1011 hPa | 0 mm | - | 661 W/m² | - |
| 1777576915 | 31.11° C | 56% | 1011.1 hPa | 0 mm | - | 264 W/m² | - |
| 1777576611 | 31.67° C | 53% | 1011.3 hPa | 0 mm | - | 180 W/m² | - |
| 1777576306 | 31.11° C | 53% | 1011.3 hPa | 0 mm | - | 514 W/m² | - |
| 1777576003 | 31.67° C | 55% | 1011.2 hPa | 0 mm | - | 229 W/m² | - |
| 1777575699 | 31.11° C | 54% | 1011.3 hPa | 0 mm | - | 161 W/m² | - |
| 1777575394 | 31.11° C | 54% | 1011.2 hPa | 0 mm | - | 141 W/m² | - |
| 1777575091 | 31.11° C | 55% | 1011.3 hPa | 0 mm | - | 243 W/m² | - |
| 1777574786 | 31.67° C | 53% | 1011.5 hPa | 0 mm | - | 415 W/m² | - |
| 1777574485 | 31.11° C | 53% | 1011.7 hPa | 0 mm | - | 678 W/m² | - |
* Rain latest hour (hover to see other rain measurements)
** Current wind speed in m/s (hover to see current wind gust speed)